DW2380 Weather Reports


Display with metric or nautical units.
time (UTC)temp
F
wind
direction
speed
MPH
gust
MPH
rain 1hr
in
rain 24hr
in
rain mn
in
humidity
%
barometer
mb
20260508064038 49 14 4.0 11.0 0.00 0.00 0.00 49 1025.9
20260508063538 49 5 7.0 12.0 0.00 0.00 0.00 46 1025.8
20260508063043 49 25 4.0 12.0 0.00 0.00 0.00 47 1025.8
20260508062539 49 360 7.0 12.0 0.00 0.00 0.00 46 1025.8
20260508062037 48 344 5.0 10.0 0.00 0.00 0.00 47 1025.8
20260508061552 48 355 4.0 10.0 0.00 0.00 0.00 49 1025.7
20260508061035 48 360 5.0 11.0 0.00 0.00 0.00 48 1025.7
20260508060538 47 335 5.0 11.0 0.00 0.00 0.00 48 1025.6
20260508060048 47 9 5.0 8.0 0.00 0.00 0.00 50 1025.5
20260508055540 46 345 5.0 8.0 0.00 0.00 0.00 52 1025.5
20260508055038 46 351 3.0 7.0 0.00 0.00 0.00 54 1025.4
20260508054605 45 9 3.0 7.0 0.00 0.00 0.00 57 1025.4
20260508054037 45 355 3.0 6.0 0.00 0.00 0.00 59 1025.4
20260508053540 44 17 2.0 7.0 0.00 0.00 0.00 62 1025.4
20260508053047 44 352 2.0 7.0 0.00 0.00 0.00 63 1025.4
20260508052538 43 5 2.0 6.0 0.00 0.00 0.00 65 1025.3
20260508052037 42 5 3.0 5.0 0.00 0.00 0.00 66 1025.2
20260508051547 42 340 2.0 5.0 0.00 0.00 0.00 72 1025.3
20260508051038 42 5 2.0 5.0 0.00 0.00 0.00 69 1025.1
20260508050538 42 11 1.0 3.0 0.00 0.00 0.00 73 1025.1
20260508050056 40 15 1.0 3.0 0.00 0.00 0.00 76 1025.1
20260508045537 39 76 0.0 2.0 0.00 0.00 0.00 77 1025.1
20260508045038 38 0 0.0 2.0 0.00 0.00 0.00 80 1025.0
20260508044543 37 0 0.0 2.0 0.00 0.00 0.00 79 1025.0
20260508044039 36 0 0.0 2.0 0.00 0.00 0.00 80 1025.0
20260508043539 35 71 1.0 2.0 0.00 0.00 0.00 81 1025.0
20260508043055 35 71 0.0 1.0 0.00 0.00 0.00 81 1025.0
20260508042540 34 71 0.0 1.0 0.00 0.00 0.00 83 1024.9
20260508042040 33 0 0.0 1.0 0.00 0.00 0.00 84 1024.9
20260508041547 33 0 0.0 1.0 0.00 0.00 0.00 84 1024.9
20260508041040 32 71 0.0 1.0 0.00 0.00 0.00 85 1024.9
20260508040538 31 71 0.0 2.0 0.00 0.00 0.00 85 1024.8
20260508040057 31 0 0.0 2.0 0.00 0.00 0.00 87 1024.8
20260508035541 31 49 0.0 1.0 0.00 0.00 0.00 88 1024.6
20260508035039 30 0 0.0 1.0 0.00 0.00 0.00 88 1024.6
20260508034548 29 44 0.0 1.0 0.00 0.00 0.00 88 1024.5
20260508034038 29 0 0.0 1.0 0.00 0.00 0.00 88 1024.4
20260508033538 29 0 0.0 2.0 0.00 0.00 0.00 89 1024.4
20260508033047 28 37 0.0 2.0 0.00 0.00 0.00 89 1024.2
20260508032539 27 0 0.0 2.0 0.00 0.00 0.00 89 1024.2
20260508032039 27 0 0.0 1.0 0.00 0.00 0.00 89 1024.2
20260508031551 27 0 0.0 3.0 0.00 0.00 0.00 88 1024.2
20260508031038 26 37 0.0 3.0 0.00 0.00 0.00 88 1024.1
20260508030538 26 37 1.0 3.0 0.00 0.00 0.00 89 1024.2
20260508030055 26 36 1.0 3.0 0.00 0.00 0.00 88 1024.0
20260508025538 26 46 1.0 3.0 0.00 0.00 0.00 88 1024.0
20260508025038 26 46 1.0 2.0 0.00 0.00 0.00 88 1024.1
20260508024553 26 46 0.0 1.0 0.00 0.00 0.00 88 1024.0
20260508024039 25 0 0.0 1.0 0.00 0.00 0.00 88 1023.9
20260508023537 25 0 0.0 0.0 0.00 0.00 0.00 88 1023.9
20260508023045 26 0 0.0 0.0 0.00 0.00 0.00 88 1023.7
20260508022537 26 0 0.0 0.0 0.00 0.00 0.00 88 1023.7
20260508022038 26 0 0.0 1.0 0.00 0.00 0.00 88 1023.6
20260508021543 26 0 0.0 2.0 0.00 0.00 0.00 87 1023.5
20260508021037 26 0 0.0 2.0 0.00 0.00 0.00 88 1023.6
20260508020539 26 0 1.0 2.0 0.00 0.00 0.00 87 1023.5
20260508020049 26 17 1.0 2.0 0.00 0.00 0.00 87 1023.3
20260508015539 26 17 1.0 2.0 0.00 0.00 0.00 87 1023.4
20260508015038 27 17 0.0 1.0 0.00 0.00 0.00 87 1023.2
20260508014551 27 17 0.0 1.0 0.00 0.00 0.00 88 1023.3
20260508014039 27 0 0.0 0.0 0.00 0.00 0.00 88 1023.2
20260508013540 27 0 0.0 0.0 0.00 0.00 0.00 88 1023.1
20260508013050 27 0 0.0 0.0 0.00 0.00 0.00 88 1023.1
20260508012539 27 0 0.0 1.0 0.00 0.00 0.00 88 1023.0
20260508012042 27 0 0.0 2.0 0.00 0.00 0.00 88 1023.0
20260508011551 27 0 0.0 2.0 0.00 0.00 0.00 88 1022.9
20260508011042 27 0 0.0 2.0 0.00 0.00 0.00 88 1022.9
20260508010538 27 17 0.0 2.0 0.00 0.00 0.00 87 1022.9
20260508010044 27 0 1.0 3.0 0.00 0.00 0.00 87 1022.8
20260508005541 27 17 1.0 3.0 0.00 0.00 0.00 87 1022.7
20260508005042 27 17 1.0 2.0 0.00 0.00 0.00 87 1022.7
20260508004546 27 17 0.0 2.0 0.00 0.00 0.00 87 1022.7
20260508004039 27 17 1.0 2.0 0.00 0.00 0.00 86 1022.6
20260508003538 28 360 1.0 2.0 0.00 0.00 0.00 86 1022.6
20260508003047 28 360 0.0 2.0 0.00 0.00 0.00 86 1022.5
20260508002537 28 360 1.0 2.0 0.00 0.00 0.00 85 1022.4
20260508002041 28 360 0.0 2.0 0.00 0.00 0.00 85 1022.3
20260508001546 28 0 0.0 1.0 0.00 0.00 0.00 85 1022.2
20260508001038 28 0 0.0 2.0 0.00 0.00 0.00 85 1022.2
20260508000538 28 360 0.0 2.0 0.00 0.00 0.00 85 1022.1
20260508000107 29 360 0.0 2.0 0.00 0.00 0.00 84 1021.9
20260507235541 29 0 0.0 2.0 0.00 0.00 0.00 84 1021.9
20260507235038 29 0 0.0 2.0 0.00 0.00 0.00 83 1021.9
20260507234549 30 360 0.0 2.0 0.00 0.00 0.00 83 1021.8
20260507234041 30 360 1.0 2.0 0.00 0.00 0.00 83 1021.8
20260507233540 29 360 0.0 1.0 0.00 0.00 0.00 83 1021.7
20260507233044 30 360 0.0 1.0 0.00 0.00 0.00 83 1021.7
20260507232538 30 0 0.0 1.0 0.00 0.00 0.00 83 1021.5
20260507232038 30 0 0.0 1.0 0.00 0.00 0.00 82 1021.5
20260507231553 30 0 0.0 3.0 0.00 0.00 0.00 82 1021.5
20260507231038 31 0 0.0 3.0 0.00 0.00 0.00 81 1021.5
20260507230542 31 360 0.0 3.0 0.00 0.00 0.00 80 1021.4
20260507230046 31 0 0.0 4.0 0.00 0.00 0.00 81 1021.5
20260507225538 31 0 1.0 5.0 0.00 0.00 0.00 79 1021.3
20260507225039 32 5 2.0 5.0 0.00 0.00 0.00 78 1021.4
20260507224546 32 5 2.0 5.0 0.00 0.00 0.00 78 1021.3
20260507224038 32 360 1.0 4.0 0.00 0.00 0.00 78 1021.2
20260507223540 32 351 2.0 4.0 0.00 0.00 0.00 78 1021.1
20260507223049 32 348 2.0 4.0 0.00 0.00 0.00 78 1021.1
20260507222538 32 360 1.0 4.0 0.00 0.00 0.00 77 1021.0
20260507222038 32 350 2.0 4.0 0.00 0.00 0.00 76 1021.0
20260507221549 32 355 1.0 4.0 0.00 0.00 0.00 75 1020.9
20260507221037 33 355 1.0 4.0 0.00 0.00 0.00 72 1020.8
20260507220539 34 12 2.0 3.0 0.00 0.00 0.00 70 1020.8
20260507220044 35 11 1.0 3.0 0.00 0.00 0.00 70 1020.7
20260507215541 35 5 1.0 3.0 0.00 0.00 0.00 70 1020.6
20260507215038 35 360 1.0 3.0 0.00 0.00 0.00 71 1020.6
20260507214550 34 10 2.0 4.0 0.00 0.00 0.00 72 1020.5
20260507214038 34 360 2.0 4.0 0.00 0.00 0.00 72 1020.4
20260507213539 34 5 2.0 3.0 0.00 0.00 0.00 71 1020.4
20260507213044 34 13 1.0 3.0 0.00 0.00 0.00 70 1020.3
20260507212536 35 15 1.0 3.0 0.00 0.00 0.00 68 1020.1
20260507212038 35 13 1.0 3.0 0.00 0.00 0.00 67 1020.1
20260507211559 36 351 1.0 3.0 0.00 0.00 0.00 66 1020.1
20260507211039 36 360 1.0 2.0 0.00 0.00 0.00 65 1020.0
20260507210538 37 46 0.0 2.0 0.00 0.00 0.00 65 1019.8
20260507210051 37 0 0.0 2.0 0.00 0.00 0.00 64 1019.8
20260507205538 37 0 0.0 2.0 0.00 0.00 0.00 64 1019.8
20260507205039 38 46 0.0 2.0 0.00 0.00 0.00 63 1019.7
20260507204547 38 46 0.0 3.0 0.00 0.00 0.00 62 1019.6
20260507204039 39 0 0.0 3.0 0.00 0.00 0.00 61 1019.5
20260507203539 39 0 1.0 3.0 0.00 0.00 0.00 63 1019.5
20260507203048 39 23 1.0 3.0 0.00 0.00 0.00 60 1019.4
20260507202541 40 349 0.0 4.0 0.00 0.00 0.00 59 1019.4
20260507202038 41 0 0.0 4.0 0.00 0.00 0.00 57 1019.4
20260507201546 41 349 1.0 4.0 0.00 0.00 0.00 56 1019.3
20260507201039 42 331 0.0 4.0 0.00 0.00 0.00 56 1019.2
20260507200539 42 319 2.0 5.0 0.00 0.00 0.00 55 1019.1
20260507200045 43 331 2.0 5.0 0.00 0.00 0.00 54 1018.9
20260507195537 43 343 1.0 5.0 0.00 0.00 0.00 53 1018.9
20260507195038 43 355 1.0 4.0 0.00 0.00 0.00 52 1018.8
20260507194542 44 319 1.0 5.0 0.00 0.00 0.00 51 1018.8
20260507194039 44 344 2.0 6.0 0.00 0.00 0.00 51 1018.6
20260507193538 44 300 3.0 9.0 0.00 0.00 0.00 50 1018.5
20260507193055 45 340 3.0 9.0 0.00 0.00 0.00 50 1018.5
20260507192537 45 304 2.0 9.0 0.00 0.00 0.00 49 1018.4
20260507192038 45 310 3.0 7.0 0.00 0.00 0.00 48 1018.3
20260507191555 45 319 2.0 5.0 0.00 0.00 0.00 47 1018.2
20260507191039 46 337 2.0 8.0 0.00 0.00 0.00 47 1018.3
20260507190536 46 315 2.0 8.0 0.00 0.00 0.00 46 1018.2
20260507190047 46 328 3.0 6.0 0.00 0.00 0.00 46 1018.2
20260507185538 46 315 2.0 8.0 0.00 0.00 0.00 45 1018.1
20260507185038 47 310 3.0 9.0 0.00 0.00 0.00 45 1018.0
20260507184550 47 336 4.0 9.0 0.00 0.00 0.00 44 1018.0
20260507184039 47 306 3.0 6.0 0.00 0.00 0.00 44 1018.0
20260507183538 47 338 2.0 6.0 0.00 0.00 0.00 43 1018.0
20260507183049 48 320 2.0 9.0 0.00 0.00 0.00 42 1017.9
20260507182538 48 338 3.0 9.0 0.00 0.00 0.00 41 1017.8
20260507182040 48 313 2.0 9.0 0.00 0.00 0.00 42 1017.7
20260507181550 49 334 3.0 13.0 0.00 0.00 0.00 41 1017.7
20260507181038 49 5 5.0 13.0 0.00 0.00 0.00 40 1017.7
20260507180541 49 306 3.0 12.0 0.00 0.00 0.00 39 1017.6
20260507180052 49 324 6.0 12.0 0.00 0.00 0.00 39 1017.5
20260507175539 50 318 6.0 13.0 0.00 0.00 0.00 38 1017.5
20260507175038 50 344 5.0 14.0 0.00 0.00 0.00 37 1017.3
20260507174607 51 321 6.0 14.0 0.00 0.00 0.00 37 1017.3
20260507174038 51 336 6.0 13.0 0.00 0.00 0.00 37 1017.2
20260507173538 51 5 4.0 11.0 0.00 0.00 0.00 36 1017.2
20260507173055 51 348 3.0 13.0 0.00 0.00 0.00 34 1017.1
20260507172540 51 321 6.0 13.0 0.00 0.00 0.00 33 1017.0
20260507172038 52 350 7.0 15.0 0.00 0.00 0.00 33 1017.0
20260507171608 52 311 8.0 15.0 0.00 0.00 0.00 32 1017.0
20260507171038 52 287 7.0 14.0 0.00 0.00 0.00 33 1016.8
20260507170539 52 292 6.0 17.0 0.00 0.00 0.00 32 1016.8
20260507170052 52 321 9.0 17.0 0.00 0.00 0.00 31 1016.8
20260507165541 53 330 8.0 21.0 0.00 0.00 0.00 31 1016.8
20260507165039 53 292 9.0 21.0 0.00 0.00 0.00 30 1016.7
20260507164547 54 309 7.0 13.0 0.00 0.00 0.00 31 1016.7
20260507164039 54 302 4.0 10.0 0.00 0.00 0.00 32 1016.7
20260507163538 54 360 4.0 15.0 0.00 0.00 0.00 31 1016.6
20260507163059 53 346 6.0 15.0 0.00 0.00 0.00 31 1016.5
20260507162539 53 360 8.0 15.0 0.00 0.00 0.00 31 1016.5
20260507162039 54 327 5.0 13.0 0.00 0.00 0.00 31 1016.4
20260507161557 54 345 6.0 14.0 0.00 0.00 0.00 30 1016.4
20260507161038 54 336 9.0 16.0 0.00 0.00 0.00 30 1016.4
20260507160540 55 333 7.0 16.0 0.00 0.00 0.00 29 1016.4
20260507160114 55 360 6.0 18.0 0.00 0.00 0.00 30 1016.3
20260507155538 55 339 6.0 18.0 0.00 0.00 0.00 30 1016.2
20260507155039 55 306 10.0 18.0 0.00 0.00 0.00 30 1016.1
20260507154551 55 10 7.0 16.0 0.00 0.00 0.00 30 1016.0
20260507154039 55 348 8.0 17.0 0.00 0.00 0.00 30 1016.0
20260507153538 56 31 5.0 21.0 0.00 0.00 0.00 31 1016.0
20260507153050 56 12 7.0 21.0 0.00 0.00 0.00 31 1016.0
20260507152541 56 305 9.0 21.0 0.00 0.00 0.00 30 1015.9
20260507152040 56 327 7.0 14.0 0.00 0.00 0.00 30 1015.8
20260507151556 56 328 7.0 14.0 0.00 0.00 0.00 31 1015.8
20260507151039 57 355 8.0 16.0 0.00 0.00 0.00 30 1015.7
20260507150539 57 298 8.0 19.0 0.00 0.00 0.00 32 1015.7
20260507150056 57 290 9.0 19.0 0.00 0.00 0.00 31 1015.7
20260507145542 57 317 7.0 19.0 0.00 0.00 0.00 33 1015.7
20260507145038 58 348 8.0 15.0 0.00 0.00 0.00 32 1015.6
20260507144545 58 329 7.0 17.0 0.00 0.00 0.00 31 1015.6
20260507144039 58 30 7.0 17.0 0.00 0.00 0.00 29 1015.5
20260507143539 58 297 7.0 16.0 0.00 0.00 0.00 30 1015.5
20260507143055 58 352 7.0 16.0 0.00 0.00 0.00 29 1015.4
20260507142537 58 312 5.0 13.0 0.00 0.00 0.00 29 1015.4
20260507142038 58 323 7.0 13.0 0.00 0.00 0.00 30 1015.4
20260507141602 59 334 7.0 13.0 0.00 0.00 0.00 29 1015.3
20260507141038 58 273 7.0 13.0 0.00 0.00 0.00 31 1015.2
20260507140539 59 299 1.0 8.0 0.00 0.00 0.00 29 1015.3
20260507140048 58 285 1.0 13.0 0.00 0.00 0.00 30 1015.3
20260507135539 58 29 4.0 13.0 0.00 0.00 0.00 29 1015.1
20260507135038 59 286 3.0 13.0 0.00 0.00 0.00 29 1015.2
20260507134549 58 250 5.0 13.0 0.00 0.00 0.00 28 1015.3
20260507134039 58 311 3.0 12.0 0.00 0.00 0.00 29 1015.3
20260507133539 59 321 4.0 10.0 0.00 0.00 0.00 30 1015.3
20260507133056 58 22 2.0 11.0 0.00 0.00 0.00 31 1015.3
20260507132540 59 360 4.0 11.0 0.00 0.00 0.00 30 1015.3
20260507132038 58 267 1.0 8.0 0.00 0.00 0.00 29 1015.3
20260507131613 58 271 3.0 10.0 0.00 0.00 0.00 27 1015.3
20260507131039 58 300 6.0 14.0 0.00 0.00 0.00 28 1015.2
20260507130541 58 267 4.0 14.0 0.00 0.00 0.00 32 1015.3
20260507130046 58 263 9.0 14.0 0.00 0.00 0.00 28 1015.3
20260507125537 59 265 8.0 12.0 0.00 0.00 0.00 30 1015.3
20260507125036 57 341 3.0 13.0 0.00 0.00 0.00 29 1015.3
20260507124553 57 270 3.0 13.0 0.00 0.00 0.00 28 1015.3
20260507124036 58 252 8.0 12.0 0.00 0.00 0.00 29 1015.4
20260507123533 58 204 2.0 12.0 0.00 0.00 0.00 28 1015.4
20260507123047 58 53 4.0 14.0 0.00 0.00 0.00 29 1015.4
20260507122533 57 332 6.0 14.0 0.00 0.00 0.00 29 1015.3
20260507122040 57 327 4.0 9.0 0.00 0.00 0.00 28 1015.3
20260507121549 57 36 2.0 11.0 0.00 0.00 0.00 27 1015.3
20260507121037 58 0 4.0 11.0 0.00 0.00 0.00 28 1015.3
20260507120537 58 352 6.0 11.0 0.00 0.00 0.00 31 1015.2
20260507120050 56 82 1.0 9.0 0.00 0.00 0.00 28 1015.2
20260507115534 57 360 4.0 9.0 0.00 0.00 0.00 30 1015.4
20260507115036 57 351 1.0 9.0 0.00 0.00 0.00 28 1015.4
20260507114544 57 0 1.0 9.0 0.00 0.00 0.00 33 1015.4
20260507114042 57 360 4.0 10.0 0.00 0.00 0.00 31 1015.4
20260507113537 57 31 4.0 10.0 0.00 0.00 0.00 31 1015.4
20260507113106 57 48 5.0 10.0 0.00 0.00 0.00 32 1015.4
20260507112541 56 78 2.0 6.0 0.00 0.00 0.00 29 1015.4
20260507112034 57 20 2.0 8.0 0.00 0.00 0.00 31 1015.4
20260507111553 56 15 3.0 9.0 0.00 0.00 0.00 30 1015.4
20260507111036 57 223 3.0 9.0 0.00 0.00 0.00 34 1015.4
20260507110536 57 175 4.0 8.0 0.00 0.00 0.00 33 1015.4
20260507110050 57 154 3.0 9.0 0.00 0.00 0.00 33 1015.4
20260507105535 56 76 4.0 9.0 0.00 0.00 0.00 33 1015.4
20260507105037 56 186 3.0 12.0 0.00 0.00 0.00 33 1015.4
20260507104559 55 150 2.0 13.0 0.00 0.00 0.00 29 1015.4
20260507104037 56 329 6.0 13.0 0.00 0.00 0.00 31 1015.5
20260507103536 56 294 6.0 13.0 0.00 0.00 0.00 34 1015.4
20260507103049 56 182 2.0 7.0 0.00 0.00 0.00 31 1015.3
20260507102537 56 273 2.0 10.0 0.00 0.00 0.00 37 1015.4
20260507102037 55 0 1.0 10.0 0.00 0.00 0.00 31 1015.4
20260507101555 55 269 6.0 10.0 0.00 0.00 0.00 33 1015.4
20260507101037 55 229 3.0 10.0 0.00 0.00 0.00 34 1015.4
20260507100536 55 248 2.0 10.0 0.00 0.00 0.00 34 1015.3
20260507100055 55 342 5.0 10.0 0.00 0.00 0.00 33 1015.3
20260507095542 55 214 5.0 10.0 0.00 0.00 0.00 32 1015.3
20260507095042 56 257 3.0 6.0 0.00 0.00 0.00 35 1015.3
20260507094547 56 263 2.0 5.0 0.00 0.00 0.00 35 1015.2
20260507094044 56 246 2.0 5.0 0.00 0.00 0.00 33 1015.3
20260507093539 55 308 1.0 4.0 0.00 0.00 0.00 33 1015.3
20260507093050 54 261 2.0 10.0 0.00 0.00 0.00 33 1015.3
20260507092539 54 12 3.0 10.0 0.00 0.00 0.00 33 1015.3
20260507092044 54 321 5.0 10.0 0.00 0.00 0.00 34 1015.3
20260507091550 54 352 3.0 8.0 0.00 0.00 0.00 35 1015.4
20260507091041 54 333 1.0 4.0 0.00 0.00 0.00 32 1015.4
20260507090539 54 90 1.0 6.0 0.00 0.00 0.00 34 1015.3
20260507090046 54 184 2.0 8.0 0.00 0.00 0.00 36 1015.4
20260507085540 54 167 4.0 8.0 0.00 0.00 0.00 35 1015.5
20260507085039 54 225 4.0 7.0 0.00 0.00 0.00 38 1015.5
20260507084554 53 0 2.0 8.0 0.00 0.00 0.00 34 1015.4
20260507084039 53 130 1.0 9.0 0.00 0.00 0.00 35 1015.5
20260507083540 54 286 4.0 9.0 0.00 0.00 0.00 40 1015.6
20260507083048 53 255 4.0 9.0 0.00 0.00 0.00 37 1015.5
20260507082538 52 55 3.0 7.0 0.00 0.00 0.00 35 1015.5
20260507082036 52 291 3.0 7.0 0.00 0.00 0.00 36 1015.5
20260507081549 52 339 2.0 6.0 0.00 0.00 0.00 34 1015.6
20260507081036 52 286 3.0 9.0 0.00 0.00 0.00 36 1015.6
20260507080540 52 253 5.0 9.0 0.00 0.00 0.00 36 1015.6
20260507080052 52 235 1.0 4.0 0.00 0.00 0.00 35 1015.5
20260507075540 52 78 2.0 4.0 0.00 0.00 0.00 35 1015.5
20260507075039 51 0 0.0 6.0 0.00 0.00 0.00 35 1015.5
20260507074552 51 273 3.0 6.0 0.00 0.00 0.00 37 1015.6
20260507074039 51 302 2.0 6.0 0.00 0.00 0.00 35 1015.6
20260507073539 52 267 1.0 5.0 0.00 0.00 0.00 39 1015.6
20260507073048 51 140 1.0 5.0 0.00 0.00 0.00 38 1015.6
20260507072539 50 352 2.0 5.0 0.00 0.00 0.00 37 1015.7
20260507072038 51 0 1.0 5.0 0.00 0.00 0.00 36 1015.7
20260507071548 51 95 3.0 7.0 0.00 0.00 0.00 38 1015.7
20260507071039 51 59 3.0 8.0 0.00 0.00 0.00 38 1015.6
20260507070539 51 92 2.0 8.0 0.00 0.00 0.00 37 1015.6
20260507065538 50 190 1.0 7.0 0.00 0.00 0.00 37 1015.6
20260507065038 50 169 2.0 7.0 0.00 0.00 0.00 39 1015.6
20260507064547 49 101 2.0 7.0 0.00 0.00 0.00 40 1015.6